User: anonymous   Login
Location: Unspecified
(0.0000°N, 0.0000°E)
Time: 00:09:03
(UTC+00:00)
Language:

Okean 3 - Orbit

View from above orbital plane
View from above orbital plane
View from above satellite
View from above satellite

Ground track
Ground track

The orbit data is extracted from the following two-line orbital elements,

1 21397U 91039A   19110.76818454  .00000194  00000-0  16179-4 0  9991
2 21397  82.5242 219.3662 0018890 143.7429 216.5076 14.92790613510119
Epoch (UTC): 20 April 2019 18:26:11
Eccentricity: 0.0018890
inclination: 82.5242°
perigee height: 576 km
apogee height: 602 km
right ascension of ascending node: 219.3662°
argument of perigee: 143.7429°
revolutions per day: 14.92790613
mean anomaly at epoch: 216.5076°
orbit number at epoch: 51011

The dashed part of the orbit path shows where the satellite is in the earth's shadow,  

DLR